Regional Weather Roundup
Issued by NWS

Home | Current Version | Previous Version | Graphics & Text | Print | Product List | Glossary On
Versions: 1 2 3 4 5 6 7 8 9 10 11 12 13 14 15 16 17 18 19 20 21 22 23 24 25 26 27 28 29 30 31 32 33 34 35 36 37 38 39 40 41 42 43 44 45 46 47 48 49 50
000
ASUS45 KSLC 011510
RWRUT

UTAH REGIONAL WEATHER ROUNDUP
NATIONAL WEATHER SERVICE SALT LAKE CITY UT
900 AM MDT MON SEP 01 2014

UTZ001>011-023>025-011600-

NORTHERN UTAH

CITY           SKY/WX    TMP DP  RH WIND       PRES   REMARKS
HILL AFB       SUNNY     58  36  44 E13       30.09R
LOGAN          SUNNY     52  46  80 CALM      30.10R
OGDEN          SUNNY     60  36  40 CALM      30.08R
PROVO AIRPORT  SUNNY     59  43  55 SE5       30.10R
SALT LAKE CITY SUNNY     60  44  55 CALM      30.07R
VERNAL         SUNNY     58  38  47 CALM      30.11R
WENDOVER       SUNNY     64  37  36 SE6       30.09R
HEBER CITY     SUNNY     48  39  71 CALM      30.15S
WEST JORDAN    SUNNY     64  48  55 CALM      30.09R

$$

UTZ012>022-026-027-011600-

SOUTHERN UTAH

CITY           SKY/WX    TMP DP  RH WIND       PRES   REMARKS
BRYCE CANYON   SUNNY     61  38  42 NE5       30.24R
CEDAR CITY     SUNNY     61  36  39 NE3       30.11R
MILFORD        SUNNY     58  39  49 S6        30.09R
MOAB/CYNLANDS  SUNNY     67  36  31 CALM      30.03R
PRICE          SUNNY     60  35  39 SE5       30.13R
ST GEORGE      SUNNY     75  39  27 SW6       29.96R
KANAB            N/A     66  39  37 NW8       30.12S

$$

REGIONAL REPORTS     COLORADO/ARIZONA

CITY           SKY/WX    TMP DP  RH WIND       PRES   REMARKS
CRAIG, CO      SUNNY     53  44  71 CALM      30.16S
GRAND JUNCTION SUNNY     63  40  42 SE7       30.08R
RIFLE          SUNNY     53  41  63 CALM      30.14S
MONTROSE       SUNNY     61  39  44 CALM      30.15R
CORTEZ         SUNNY     60  41  49 E3        30.15S
PAGE, AZ       SUNNY     77  34  21 N3        30.03R
GRAND CANYON   SUNNY     64  45  49 VRB3      30.22F
KINGMAN        SUNNY     81  47  30 SE6       29.98R
FLAGSTAFF      SUNNY     66  45  46 SW3       30.26S

$$

REGIONAL REPORTS    NEVADA/IDAHO/WYOMING

CITY           SKY/WX    TMP DP  RH WIND       PRES   REMARKS
LAS VEGAS, NV  SUNNY     84  34  16 SW5       29.82R
ELY            SUNNY     53  36  52 S10       30.18R
ELKO           SUNNY     53  34  48 CALM      30.14R
POCATELLO, ID  SUNNY     57  42  57 SW14      30.11R
BURLEY         SUNNY     58  44  60 W13G18    30.09R
EVANSTON, WY   MOSUNNY   51  34  52 SW8       30.18R
ROCK SPRINGS   MOSUNNY   51  34  52 SW8       30.14S

$$



USA.gov is the U.S. government's official web portal to all federal, state and local government web resources and services.